Starlink 31497

operational
NORAD ID: 60592 Int'l Des: 2024-150 Owner: SPXS Country: US Constellation: starlink
LEOCIRCULAR

About Starlink 31497

Description loading...

Live Position

Loading 3D Globe...

Upcoming Passes

Altitude History

Altitude vs Time

uPlot chart will show altitude changes over time

Two-Line Element Set

1 60592U 24150K 25353.89465495 -.00000994 00000-0 -21448-4 0 9999
2 60592 53.1633 317.7212 0001370 101.0778 259.0377 15.30183192 75821
Epoch: Dec 19, 2025 • Age: 9 hours

Current Status

Altitude 493.4 km
Velocity 7.62 km/s
Sub-Earth Point -49.97°S, 65.98°E
Launch Date Aug 20, 2024
Age 1.3 years
Type internet

Technical Details

Classification Payload
Mass 730.00 kg
Dry Mass 700.00 kg
Total Mass 730.00 kg
Length 0.30 m
Diameter 4.10 m
Span 29.00 m
Shape Box + pan
Manufacturer SPXS
Bus Type Starlink V2M
Phase Status In Orbit
Owner/State SPXS/US

Large Constellations

Loading constellations...